TimeEST,TemperatureF,Dew PointF,Humidity,Sea Level PressureIn,VisibilityMPH,Wind Direction,Wind SpeedMPH,Gust SpeedMPH,PrecipitationIn,Events,Conditions,WindDirDegrees,DateUTC
12:15 AM,22.1,12.9,68,29.92,10.0,West,16.1,25.3,N/A,Snow,Light Snow,270,2013-02-20 05:15:00
12:34 AM,21.9,12.9,68,29.93,10.0,West,17.3,24.2,N/A,Snow,Light Snow,270,2013-02-20 05:34:00
12:54 AM,21.9,13.1,69,29.93,10.0,West,13.8,19.6,N/A,Snow,Light Snow,260,2013-02-20 05:54:00
1:15 AM,21.9,12.9,68,29.94,10.0,West,13.8,20.7,N/A,Snow,Light Snow,260,2013-02-20 06:15:00
1:34 AM,21.7,12.9,69,29.94,10.0,West,12.7,20.7,N/A,Snow,Light Snow,260,2013-02-20 06:34:00
1:54 AM,21.6,13.1,70,29.94,10.0,West,9.2,20.7,N/A,Snow,Light Snow,260,2013-02-20 06:54:00
2:14 AM,21.2,13.1,71,29.95,10.0,West,11.5,18.4,N/A,Snow,Light Snow,260,2013-02-20 07:14:00
2:34 AM,21.2,13.5,72,29.96,10.0,West,10.4,20.7,N/A,Snow,Light Snow,260,2013-02-20 07:34:00
2:54 AM,21.2,14.0,74,29.96,5.0,West,11.5,17.3,N/A,Snow,Light Snow,260,2013-02-20 07:54:00
3:14 AM,21.6,14.5,74,29.96,5.0,West,12.7,21.9,N/A,Snow,Light Snow,270,2013-02-20 08:14:00
3:34 AM,21.2,15.1,77,29.97,3.0,West,11.5,18.4,N/A,Snow,Light Snow,270,2013-02-20 08:34:00
3:54 AM,21.2,14.9,77,29.97,5.0,West,15.0,20.7,N/A,Snow,Light Snow,270,2013-02-20 08:54:00
4:15 AM,21.2,14.0,74,29.97,7.0,West,12.7,18.4,N/A,Snow,Light Snow,270,2013-02-20 09:15:00
4:34 AM,21.2,13.1,71,29.99,5.0,West,13.8,24.2,N/A,Snow,Light Snow,280,2013-02-20 09:34:00
4:55 AM,20.8,9.9,63,30.00,5.0,WNW,12.7,34.5,N/A,,Haze,290,2013-02-20 09:55:00
5:14 AM,20.7,9.0,61,30.01,10.0,West,20.7,27.6,N/A,,Overcast,280,2013-02-20 10:14:00
5:34 AM,19.9,8.8,62,30.01,10.0,West,10.4,17.3,N/A,,Scattered Clouds,280,2013-02-20 10:34:00
5:54 AM,19.8,10.4,67,30.02,10.0,West,9.2,18.4,N/A,,Scattered Clouds,270,2013-02-20 10:54:00
6:14 AM,19.9,11.3,69,30.03,10.0,West,12.7,18.4,N/A,,Overcast,260,2013-02-20 11:14:00
6:35 AM,20.1,11.7,70,30.03,10.0,West,12.7,-,N/A,,Overcast,270,2013-02-20 11:35:00
6:54 AM,20.3,11.8,70,30.04,10.0,West,11.5,18.4,N/A,,Overcast,270,2013-02-20 11:54:00
7:14 AM,20.3,11.1,68,30.04,10.0,West,12.7,19.6,N/A,,Overcast,270,2013-02-20 12:14:00
7:34 AM,20.7,10.4,65,30.05,10.0,West,12.7,23.0,N/A,,Overcast,270,2013-02-20 12:34:00
7:54 AM,20.8,10.2,64,30.06,10.0,WNW,11.5,19.6,N/A,,Overcast,290,2013-02-20 12:54:00
8:15 AM,20.8,9.3,61,30.07,10.0,WNW,17.3,21.9,N/A,,Overcast,290,2013-02-20 13:15:00
8:34 AM,21.2,9.7,61,30.07,10.0,West,13.8,21.9,N/A,,Overcast,280,2013-02-20 13:34:00
8:54 AM,21.2,9.5,61,30.08,3.0,West,13.8,21.9,N/A,,Haze,280,2013-02-20 13:54:00
9:15 AM,21.7,10.0,61,30.08,10.0,WNW,15.0,20.7,N/A,,Overcast,290,2013-02-20 14:15:00
9:34 AM,22.1,10.0,60,30.08,10.0,West,13.8,24.2,N/A,,Overcast,280,2013-02-20 14:34:00
9:54 AM,22.6,10.4,59,30.08,10.0,WNW,11.5,23.0,N/A,,Overcast,290,2013-02-20 14:54:00
10:15 AM,22.8,9.1,56,30.09,10.0,WNW,16.1,25.3,N/A,,Overcast,290,2013-02-20 15:15:00
10:34 AM,23.0,10.6,59,30.09,10.0,WNW,12.7,23.0,N/A,,Overcast,290,2013-02-20 15:34:00
10:54 AM,23.4,10.8,59,30.10,10.0,NW,17.3,23.0,N/A,,Overcast,320,2013-02-20 15:54:00
11:14 AM,23.9,9.7,55,30.10,10.0,NW,16.1,23.0,N/A,,Overcast,320,2013-02-20 16:14:00
11:34 AM,23.9,10.4,56,30.10,10.0,WNW,10.4,19.6,N/A,,Overcast,300,2013-02-20 16:34:00
11:55 AM,24.1,9.5,54,30.11,10.0,WNW,17.3,25.3,N/A,,Overcast,300,2013-02-20 16:55:00
12:14 PM,24.3,9.7,54,30.12,10.0,WNW,11.5,20.7,N/A,,Overcast,290,2013-02-20 17:14:00
12:35 PM,24.6,10.6,55,30.12,10.0,WNW,12.7,20.7,N/A,,Overcast,290,2013-02-20 17:35:00
12:54 PM,24.8,9.5,52,30.13,10.0,WNW,18.4,24.2,N/A,,Overcast,300,2013-02-20 17:54:00
1:14 PM,25.0,10.2,54,30.13,10.0,NW,16.1,21.9,N/A,,Overcast,310,2013-02-20 18:14:00
1:35 PM,24.8,10.4,54,30.14,7.0,West,13.8,21.9,N/A,Snow,Light Snow,280,2013-02-20 18:35:00
1:54 PM,24.8,11.5,57,30.13,7.0,West,11.5,20.7,N/A,Snow,Light Snow,280,2013-02-20 18:54:00
2:15 PM,25.5,9.7,51,30.14,10.0,WNW,13.8,25.3,N/A,,Overcast,290,2013-02-20 19:15:00
2:34 PM,25.3,11.3,55,30.15,10.0,WNW,15.0,19.6,N/A,,Overcast,290,2013-02-20 19:34:00
2:54 PM,25.7,10.9,54,30.15,10.0,West,11.5,19.6,N/A,,Overcast,280,2013-02-20 19:54:00
3:15 PM,25.7,10.6,53,30.15,10.0,NW,12.7,17.3,N/A,,Overcast,310,2013-02-20 20:15:00
3:54 PM,26.1,11.7,55,30.16,10.0,WNW,15.0,20.7,N/A,,Overcast,290,2013-02-20 20:54:00
4:15 PM,26.2,11.1,53,30.17,10.0,West,10.4,19.6,N/A,,Overcast,280,2013-02-20 21:15:00
4:34 PM,26.1,11.3,54,30.19,10.0,WNW,17.3,20.7,N/A,,Overcast,290,2013-02-20 21:34:00
4:54 PM,26.1,10.8,52,30.20,10.0,West,9.2,19.6,N/A,,Overcast,280,2013-02-20 21:54:00
5:15 PM,26.1,11.7,55,30.20,10.0,West,11.5,17.3,N/A,,Overcast,280,2013-02-20 22:15:00
5:34 PM,25.9,12.7,58,30.21,10.0,West,10.4,-,N/A,,Overcast,270,2013-02-20 22:34:00
5:54 PM,26.1,13.1,58,30.21,10.0,West,12.7,-,N/A,Snow,Light Snow,280,2013-02-20 22:54:00
6:14 PM,25.5,14.0,62,30.20,10.0,WNW,9.2,21.9,N/A,,Overcast,290,2013-02-20 23:14:00
6:34 PM,25.5,14.4,63,30.20,10.0,West,10.4,16.1,N/A,,Overcast,280,2013-02-20 23:34:00
6:55 PM,25.5,14.7,64,30.20,10.0,WNW,8.1,-,N/A,,Overcast,300,2013-02-20 23:55:00
7:14 PM,25.7,15.1,64,30.20,10.0,WNW,8.1,-,N/A,,Overcast,290,2013-02-21 00:14:00
7:34 PM,25.7,14.9,64,30.20,10.0,WNW,8.1,-,N/A,,Overcast,300,2013-02-21 00:34:00
7:54 PM,25.9,15.3,64,30.20,10.0,NW,10.4,16.1,N/A,Snow,Light Snow,310,2013-02-21 00:54:00
8:14 PM,26.1,13.8,60,30.21,10.0,WNW,10.4,24.2,N/A,,Overcast,300,2013-02-21 01:14:00
8:35 PM,26.1,13.1,58,30.22,10.0,WNW,15.0,24.2,N/A,,Overcast,300,2013-02-21 01:35:00
8:54 PM,25.7,12.2,57,30.21,10.0,NNW,13.8,20.7,N/A,,Overcast,340,2013-02-21 01:54:00
9:14 PM,25.7,12.9,58,30.21,10.0,NW,12.7,18.4,N/A,,Overcast,310,2013-02-21 02:14:00
9:34 PM,25.7,13.5,60,30.21,10.0,NNW,12.7,19.6,N/A,,Overcast,330,2013-02-21 02:34:00
9:54 PM,25.5,14.0,62,30.22,10.0,NW,8.1,16.1,N/A,Snow,Light Snow,310,2013-02-21 02:54:00
10:14 PM,25.3,14.5,64,30.23,7.0,NW,15.0,19.6,N/A,Snow,Light Snow,320,2013-02-21 03:14:00
10:34 PM,25.2,14.5,64,30.23,10.0,NW,9.2,18.4,N/A,Snow,Light Snow,310,2013-02-21 03:34:00
10:54 PM,24.8,14.4,65,30.22,10.0,NNW,8.1,-,N/A,Snow,Light Snow,330,2013-02-21 03:54:00
11:14 PM,24.8,14.4,65,30.23,10.0,NNW,16.1,19.6,N/A,Snow,Light Snow,330,2013-02-21 04:14:00
11:54 PM,24.8,15.1,67,30.23,10.0,NNW,6.9,-,N/A,Snow,Light Snow,330,2013-02-21 04:54:00